Weather History for St.-Jovite, QC

Change the Weather History Date:

Saturday, February 23, 2013

  Actual Average Record
Temperature  
Mean Temperature 27 °F -  
Max Temperature 30 °F - - ()
Min Temperature 24 °F - - ()
Degree Days  
Heating Degree Days 38    
Moisture  
Dew Point 24 °F    
Average Humidity 85    
Maximum Humidity 95    
Minimum Humidity 74    
Precipitation  
Precipitation 0.08 in - - ()
Sea Level Pressure  
Sea Level Pressure 30.03 in    
Wind  
Wind Speed 3 mph ()    
Max Wind Speed 6 mph    
Max Gust Speed -    
T = Trace of Precipitation, MM = Missing Value Source: Averaged Metar Reports

Daily Weather History Graph

Daily Weather History Graph

Search for Another Location

Airport:

Trip Planner

Search our weather history database for the weather conditions in past years. The results will help you decide how hot, cold, wet, or windy it might be!

Date:

Astronomy

Feb. 23, 2013 Rise Set
Actual Time 6:47 AM EST 5:36 PM EST
Civil Twilight 6:17 AM EST 6:06 PM EST
Nautical Twilight 5:42 AM EST 6:41 PM EST
Astronomical Twilight 5:07 AM EST 7:16 PM EST
Moon 3:40 PM EST (2/23) 5:12 AM EST (2/23)
Length of Visible Light 11h 49m
Length of Day
10h 49m
Waxing Gibbous, 95% of the Moon is Illuminated
Feb 23
Waxing Gibbous
Feb 25
Full
Mar 4
Last Quarter
Mar 11
New
Mar 19
First Quarter

Hourly Weather History & Observations

Time (EST) Temp. Windchill Dew Point Humidity Pressure Visibility Wind Dir Wind Speed Gust Speed Precip Events Conditions
12:00 AM 25.3 °F - 19.9 °F 80% 30.19 in - East 2.3 mph - N/A   Unknown
1:00 AM 25 °F - 20 °F 74% 30.17 in - East 2.3 mph - -  
1:00 AM 25.2 °F - 20.1 °F 81% 30.17 in - East 2.3 mph - N/A   Unknown
2:00 AM 24.8 °F 17.9 °F 20.1 °F 82% 30.14 in - ESE 5.8 mph - N/A   Unknown
3:00 AM 24.4 °F 20.1 °F 20.1 °F 84% 30.13 in - East 3.5 mph - N/A   Unknown
4:00 AM 24.6 °F 18.8 °F 20.1 °F 83% 30.11 in - East 4.6 mph - N/A   Unknown
5:00 AM 25.0 °F - 21.0 °F 85% 30.11 in - ESE 2.3 mph - N/A   Unknown
6:00 AM 25.0 °F - 20.8 °F 84% 30.10 in - East 2.3 mph - N/A   Unknown
7:00 AM 25 °F - 21 °F 78% 30.09 in - East 3.5 mph - -  
7:00 AM 25.0 °F 20.7 °F 21.0 °F 85% 30.09 in - East 3.5 mph - N/A   Unknown
8:00 AM 25.3 °F 21.1 °F 21.2 °F 84% 30.08 in - East 3.5 mph - N/A   Unknown
9:00 AM 26.2 °F 22.1 °F 21.6 °F 82% 30.07 in - ESE 3.5 mph - N/A   Unknown
10:00 AM 27.0 °F 23.0 °F 22.8 °F 84% 30.06 in - East 3.5 mph - N/A   Unknown
11:00 AM 28.4 °F 24.6 °F 23.7 °F 83% 30.03 in - East 3.5 mph - N/A   Unknown
12:00 PM 28.9 °F 25.2 °F 24.6 °F 84% 30.02 in - East 3.5 mph - N/A   Unknown
1:00 PM 29 °F - 25 °F 78% 30.00 in - East 2.3 mph - -  
1:00 PM 29.3 °F - 24.8 °F 83% 30.00 in - East 2.3 mph - N/A   Unknown
2:00 PM 29.7 °F 26.1 °F 25.3 °F 84% 29.97 in - East 3.5 mph - N/A   Unknown
3:00 PM 29.7 °F - 26.4 °F 88% 29.96 in - East 2.3 mph - N/A   Unknown
4:00 PM 30.0 °F - 26.4 °F 86% 29.94 in - ESE 2.3 mph - N/A   Unknown
5:00 PM 29.8 °F - 27.1 °F 90% 29.94 in - NE 1.2 mph - 0.08 in   Unknown
6:00 PM 29.1 °F - 27.7 °F 94% 29.93 in - NNW 2.3 mph - N/A   Unknown
7:00 PM 29 °F - 27 °F 90% 29.92 in - NE 2.3 mph - -  
7:00 PM 29.3 °F - 27.1 °F 92% 29.92 in - NE 2.3 mph - N/A   Unknown
8:00 PM 29.3 °F - 27.5 °F 93% 29.92 in - NE 2.3 mph - N/A   Unknown
9:00 PM 29.1 °F - 27.9 °F 95% 29.92 in - ENE 2.3 mph - N/A   Unknown
10:00 PM 29.1 °F - 27.9 °F 95% 29.90 in - East 1.2 mph - N/A   Unknown